Winter Park, USA 16 day weather forecast

Slopes altitude range 2745 m - 3675m

Number of lifts: 22 Pistes: 143km

In some cases the lift and piste totals shown are for the ski domain (e.g. Three Valleys) rather than individual resort (e.g. Courchevel)

Overview

The 16 day weather forecast is fully updated 4 times every day.

    • Wed 26 JUN 2019
    • Wed 26
    • 8C 9C
    • Thu 27 JUN 2019
    • Thu 27
    • 9C 10C
    • Fri 28 JUN 2019
    • Fri 28
    • 10C 11C
    • Sat 29 JUN 2019
    • Sat 29
    • 13C 14C
    • Sun 30 JUN 2019
    • Sun 30
    • 10C 11C
    • Mon 01 JUL 2019
    • Mon 01
    • 8C 8C
    • Tue 02 JUL 2019
    • Tue 02
    • 8C 10C
    • Wed 03 JUL 2019
    • Wed 03
    • 8C 10C
    • Thu 04 JUL 2019
    • Thu 04
    • 16C 20C
    • Fri 05 JUL 2019
    • Fri 05
    • 17C 21C
    • Sat 06 JUL 2019
    • Sat 06
    • 16C 20C
    • Sun 07 JUL 2019
    • Sun 07
    • 17C 18C
    • Mon 08 JUL 2019
    • Mon 08
    • 16C 19C
    • Tue 09 JUL 2019
    • Tue 09
    • 16C 21C
    • Wed 10 JUL 2019
    • Wed 10
    • 18C 22C
    • Thu 11 JUL 2019
    • Thu 11
    • 19C 22C

Date:

Time Type 0°C level Temp Chill Snow Cloud Speed Gust Dir Press
3:00 4628m 9°C 9_5 0cm 34% 5mph 5mph 1015mB
6:00 4645m 9°C 9_5 0cm 36% 5mph 5mph 1017mB
9:00 4660m 8°C 8_6 0cm 0% 6mph 6mph 1016mB
12:00 4662m 9°C 9_8 0cm 12% 8mph 7mph 1017mB
15:00 4652m 18°C 18_5 0cm 100% 5mph 10mph 1015mB
18:00 4741m 22°C 22_8 0cm 100% 8mph 15mph 1013mB
21:00 4599m 17°C 17_5 0cm 99% 5mph 11mph 1012mB
0:00 4837m 17°C 17_9 0cm 82% 9mph 17mph 1013mB
3:00 4856m 12°C 12_10 0cm 4% 10mph 23mph 1016mB
6:00 4855m 10°C 10_9 0cm 2% 9mph 9mph 1018mB
9:00 4704m 9°C 9_9 0cm 14% 9mph 9mph 1019mB
12:00 4670m 10°C 10_9 0cm 7% 9mph 9mph 1020mB
15:00 4610m 18°C 18_15 0cm 84% 15mph 28mph 1018mB
18:00 4820m 23°C 23_10 0cm 42% 10mph 17mph 1016mB
21:00 4981m 22°C 22_7 0cm 14% 7mph 12mph 1014mB
0:00 5009m 20°C 20_4 0cm 56% 4mph 7mph 1013mB
3:00 4889m 13°C 13_4 0cm 19% 4mph 5mph 1017mB
6:00 4861m 11°C 11_7 0cm 9% 7mph 7mph 1019mB
9:00 4814m 10°C 10_9 0cm 0% 9mph 10mph 1019mB
12:00 4928m 11°C 11_10 0cm 2% 10mph 9mph 1020mB
15:00 5091m 20°C 20_13 0cm 15% 13mph 24mph 1018mB
18:00 4963m 25°C 25_7 0cm 7% 7mph 13mph 1017mB
21:00 5087m 24°C 24_2 0cm 25% 2mph 8mph 1015mB
0:00 5047m 23°C 23_6 0cm 63% 6mph 11mph 1014mB
3:00 4975m 15°C 15_6 0cm 59% 6mph 7mph 1017mB
6:00 4964m 14°C 14_7 0cm 32% 7mph 7mph 1018mB
9:00 4962m 13°C 13_9 0cm 47% 9mph 9mph 1018mB
12:00 4895m 14°C 14_10 0cm 73% 10mph 15mph 1020mB
15:00 5075m 20°C 20_9 0cm 100% 9mph 19mph 1018mB
18:00 4911m 24°C 24_4 0cm 100% 4mph 9mph 1017mB
21:00 4977m 20°C 20_2 0cm 100% 2mph 2mph 1015mB
0:00 4943m 9°C 9_6 0cm 100% 6mph 7mph 1017mB
3:00 4789m 11°C 11_10 0cm 100% 10mph 14mph 1020mB
6:00 4928m 11°C 11_6 0cm 100% 6mph 6mph 1020mB
9:00 4910m 10°C 10_7 0cm 100% 7mph 7mph 1019mB
12:00 4940m 11°C 11_9 0cm 100% 9mph 8mph 1020mB
15:00 4993m 17°C 17_4 0cm 83% 4mph 6mph 1018mB
18:00 4746m 23°C 23_6 0cm 42% 6mph 4mph 1016mB
21:00 4629m 9°C 9_6 0cm 97% 6mph 9mph 1015mB
0:00 4748m 9°C 9_7 0cm 98% 7mph 9mph 1016mB
3:00 4788m 9°C 9_5 0cm 100% 5mph 6mph 1019mB
6:00 5033m 8°C 8_8 0cm 100% 8mph 8mph 1019mB
9:00 4911m 8°C 8_8 0cm 75% 8mph 8mph 1019mB
12:00 4811m 8°C 8_8 0cm 63% 8mph 8mph 1019mB
15:00 4699m 16°C 16_5 0cm 91% 5mph 12mph 1017mB
18:00 4624m 22°C 22_2 0cm 66% 2mph 6mph 1015mB
21:00 4713m 15°C 15_4 0cm 100% 4mph 4mph 1013mB
0:00 4681m 14°C 14_2 0cm 100% 2mph 4mph 1014mB
3:00 4767m 11°C 11_6 0cm 100% 6mph 7mph 1016mB
6:00 4754m 10°C 10_7 0cm 100% 7mph 7mph 1015mB
9:00 4880m 9°C 9_10 0cm 85% 10mph 9mph 1015mB
12:00 4741m 10°C 10_9 0cm 55% 9mph 9mph 1015mB
15:00 4651m 18°C 18_3 0cm 0% 3mph 8mph 1013mB
18:00 4704m 21°C 21_5 0cm 3% 5mph 9mph 1010mB
21:00 4814m 20°C 20_2 0cm 72% 2mph 11mph 1008mB
0:00 4708m 14°C 14_2 0cm 81% 2mph 7mph 1009mB
3:00 4640m 11°C 11_4 0cm 36% 4mph 4mph 1012mB
6:00 4677m 10°C 10_8 0cm 68% 8mph 8mph 1013mB
9:00 4624m 9°C 9_9 0cm 0% 9mph 8mph 1012mB
12:00 4570m 10°C 10_8 0cm 0% 8mph 8mph 1014mB
15:00 4611m 24°C 24_1 0cm 0% 1mph 3mph 1011mB
18:00 4667m 30°C 30_7 0cm 0% 7mph 7mph 1009mB
21:00 4732m 30°C 30_9 0cm 0% 9mph 10mph 1007mB
0:00 4688m 30°C 30_20 0cm 33% 20mph 18mph 1007mB
3:00 4704m 26°C 26_10 0cm 89% 10mph 17mph 1011mB
6:00 4616m 20°C 20_7 0cm 90% 7mph 9mph 1013mB
9:00 4665m 17°C 17_4 0cm 77% 4mph 5mph 1013mB
12:00 4677m 20°C 20_3 0cm 39% 3mph 4mph 1015mB
15:00 4661m 25°C 25_5 0cm 0% 5mph 8mph 1014mB
18:00 4721m 32°C 32_7 0cm 0% 7mph 10mph 1012mB
21:00 4844m 32°C 32_9 0cm 10% 9mph 9mph 1010mB
0:00 4968m 32°C 32_7 0cm 45% 7mph 7mph 1009mB
3:00 4925m 27°C 27_6 0cm 49% 6mph 8mph 1013mB
6:00 4884m 20°C 20_13 0cm 28% 13mph 22mph 1017mB
9:00 4841m 18°C 18_2 0cm 2% 2mph 4mph 1018mB
12:00 4849m 21°C 21_4 0cm 1% 4mph 5mph 1018mB
15:00 4857m 23°C 23_3 0cm 0% 3mph 1mph 1017mB
18:00 4872m 31°C 31_9 0cm 0% 9mph 9mph 1015mB
21:00 4788m 31°C 31_10 0cm 0% 10mph 8mph 1013mB
0:00 4997m 19°C 19_2 0cm 50% 2mph 6mph 1014mB
Afternoon 0mm 0 4837m 20°C 20_3 0cm 0% 3mph 4mph 1019mB
Morning 0.0208333mm 0 4873m 31°C 31_15 0cm 66% 15mph 13mph 1014mB
Afternoon 0mm 0 4816m 18°C 18_5 0cm 19% 5mph 6mph 1018mB
Morning 0.0208333mm 0 4676m 28°C 28_13 0cm 26% 13mph 15mph 1014mB
Afternoon 0mm 0 4808m 19°C 19_2 0cm 72% 2mph 2mph 1020mB
Morning 0.708333mm 1.125 4878m 22°C 22_20 0cm 56% 20mph 26mph 1016mB
Afternoon 0mm 0 4981m 21°C 21_1 0cm 90% 1mph 1mph 1019mB
Morning 0.0625mm 0.125 4920m 27°C 27_6 0cm 34% 6mph 8mph 1013mB
Afternoon 0mm 0 4931m 22°C 22_1 0cm 35% 1mph 2mph 1018mB
Morning 0.0416667mm 0.0625 4936m 27°C 27_10 0cm 18% 10mph 8mph 1013mB
Afternoon 0mm 0 4938m 22°C 22_4 0cm 100% 4mph 5mph 1019mB
Morning 0.208333mm 0.5 4995m 26°C 26_10 0cm 50% 10mph 11mph 1016mB

16 day outlook at a glance

Forecast issued: 6/26/2019 8:02:53 AM

Chat

Your comments and questions. In a resort? Let us know what it's like!


Characters left 250

For terms and conditions see Readers Comments on the Cookie and privacy policy page.